| time (UTC) | temp C | wind direction | speed KPH | gust KPH | rain 1hr cm | rain 24hr cm | rain mn cm | humidity % | barometer mb |
| 20260510223036 | 16 | 27 | 3.2 | 20.9 | 0.00 | 0.10 | 0.08 | 54 | 1013.3 |
| 20260510221534 | 16 | 53 | 0.0 | 16.1 | 0.00 | 0.10 | 0.08 | 52 | 1013.0 |
| 20260510220027 | 17 | 360 | 0.0 | 1.6 | 0.00 | 0.10 | 0.08 | 49 | 1012.7 |
| 20260510214523 | 18 | 26 | 0.0 | 4.8 | 0.00 | 0.10 | 0.08 | 48 | 1012.8 |
| 20260510213019 | 18 | 15 | 0.0 | 6.4 | 0.00 | 0.10 | 0.08 | 51 | 1012.2 |
| 20260510211515 | 18 | 13 | 0.0 | 3.2 | 0.00 | 0.10 | 0.08 | 49 | 1012.2 |
| 20260510210015 | 17 | 43 | 0.0 | 0.0 | 0.00 | 0.10 | 0.08 | 51 | 1012.0 |
| 20260510204515 | 18 | 53 | 0.0 | 1.6 | 0.00 | 0.10 | 0.08 | 52 | 1011.9 |
| 20260510203006 | 18 | 31 | 0.0 | 1.6 | 0.00 | 0.10 | 0.08 | 51 | 1011.5 |
| 20260510201502 | 18 | 252 | 0.0 | 0.0 | 0.00 | 0.10 | 0.08 | 52 | 1011.8 |
| 20260510200056 | 19 | 26 | 0.0 | 1.6 | 0.00 | 0.10 | 0.08 | 51 | 1011.8 |
| 20260510194552 | 19 | 62 | 0.0 | 0.0 | 0.00 | 0.10 | 0.08 | 52 | 1011.7 |
| 20260510193051 | 18 | 192 | 0.0 | 3.2 | 0.00 | 0.18 | 0.08 | 53 | 1012.0 |
| 20260510191548 | 18 | 102 | 0.0 | 0.0 | 0.00 | 0.18 | 0.08 | 52 | 1012.1 |
| 20260510190039 | 18 | 231 | 0.0 | 0.0 | 0.00 | 0.18 | 0.08 | 53 | 1012.3 |
| 20260510184535 | 18 | 142 | 0.0 | 0.0 | 0.00 | 0.18 | 0.08 | 53 | 1012.5 |
| 20260510183031 | 17 | 224 | 0.0 | 0.0 | 0.00 | 0.25 | 0.08 | 53 | 1012.4 |
| 20260510181533 | 16 | 360 | 0.0 | 1.6 | 0.00 | 0.25 | 0.08 | 53 | 1012.6 |
| 20260510180025 | 16 | 36 | 0.0 | 1.6 | 0.00 | 0.25 | 0.08 | 52 | 1012.8 |
| 20260510174522 | 15 | 111 | 0.0 | 3.2 | 0.00 | 0.25 | 0.08 | 49 | 1012.8 |
| 20260510173018 | 15 | 50 | 0.0 | 3.2 | 0.00 | 0.25 | 0.08 | 41 | 1012.8 |
| 20260510171513 | 15 | 24 | 0.0 | 3.2 | 0.00 | 0.25 | 0.08 | 1 | 1013.1 |
| 20260510170010 | 14 | 28 | 0.0 | 0.0 | 0.00 | 0.25 | 0.08 | 1 | 1013.3 |
| 20260510164513 | 13 | 15 | 0.0 | 1.6 | 0.00 | 0.25 | 0.08 | 1 | 1013.1 |
| 20260510163001 | 13 | 36 | 0.0 | 0.0 | 0.00 | 0.28 | 0.08 | 1 | 1013.4 |
| 20260510161557 | 13 | 69 | 0.0 | 0.0 | 0.00 | 0.28 | 0.08 | 1 | 1013.0 |
| 20260510160057 | 13 | 17 | 0.0 | 0.0 | 0.00 | 0.28 | 0.08 | 1 | 1013.0 |
| 20260510154557 | 12 | 63 | 0.0 | 0.0 | 0.00 | 0.28 | 0.08 | 1 | 1013.2 |
| 20260510153048 | 12 | 13 | 0.0 | 0.0 | 0.00 | 0.36 | 0.08 | 1 | 1012.9 |
| 20260510151553 | 12 | 63 | 0.0 | 0.0 | 0.00 | 0.36 | 0.08 | 1 | 1012.9 |
| 20260510150044 | 11 | 67 | 0.0 | 4.8 | 0.00 | 0.36 | 0.08 | 1 | 1012.7 |
| 20260510144549 | 11 | 28 | 0.0 | 0.0 | 0.00 | 0.36 | 0.08 | 1 | 1012.5 |
| 20260510143036 | 11 | 64 | 0.0 | 3.2 | 0.00 | 0.43 | 0.08 | 1 | 1012.6 |
| 20260510141527 | 11 | 57 | 0.0 | 4.8 | 0.00 | 0.43 | 0.08 | 1 | 1012.1 |
| 20260510140023 | 11 | 22 | 0.0 | 1.6 | 0.00 | 0.43 | 0.08 | 1 | 1011.9 |
| 20260510134519 | 11 | 37 | 0.0 | 0.0 | 0.00 | 0.43 | 0.08 | 1 | 1011.8 |
| 20260510133016 | 11 | 15 | 0.0 | 3.2 | 0.00 | 0.56 | 0.08 | 1 | 1011.4 |
| 20260510131521 | 11 | 146 | 0.0 | 0.0 | 0.00 | 0.56 | 0.08 | 1 | 1011.3 |
| 20260510130012 | 11 | 126 | 0.0 | 0.0 | 0.00 | 0.56 | 0.08 | 1 | 1011.5 |
| 20260510124509 | 11 | 197 | 0.0 | 0.0 | 0.00 | 0.56 | 0.08 | 1 | 1011.2 |
| 20260510123003 | 11 | 198 | 0.0 | 0.0 | 0.00 | 0.71 | 0.08 | 1 | 1011.1 |
| 20260510121559 | 11 | 198 | 0.0 | 0.0 | 0.00 | 0.71 | 0.08 | 1 | 1010.7 |
| 20260510120007 | 10 | 198 | 0.0 | 0.0 | 0.00 | 0.71 | 0.08 | 1 | 1010.5 |
| 20260510114504 | 10 | 200 | 0.0 | 0.0 | 0.00 | 0.71 | 0.08 | 1 | 1010.5 |
| 20260510113110 | 10 | 200 | 0.0 | 0.0 | 0.00 | 0.86 | 0.08 | 1 | 1010.2 |
| 20260510111554 | 10 | 200 | 0.0 | 0.0 | 0.00 | 0.86 | 0.08 | 1 | 1009.8 |
| 20260510110050 | 10 | 200 | 0.0 | 0.0 | 0.00 | 0.86 | 0.08 | 1 | 1009.8 |
| 20260510104546 | 10 | 200 | 0.0 | 0.0 | 0.00 | 0.86 | 0.08 | 1 | 1009.4 |
| 20260510103042 | 9 | 200 | 0.0 | 0.0 | 0.00 | 1.02 | 0.08 | 1 | 1009.1 |
| 20260510101536 | 9 | 200 | 0.0 | 0.0 | 0.00 | 1.02 | 0.08 | 1 | 1008.8 |
| 20260510100024 | 9 | 200 | 0.0 | 0.0 | 0.00 | 1.02 | 0.08 | 1 | 1008.7 |
| 20260510094523 | 9 | 200 | 0.0 | 0.0 | 0.00 | 1.02 | 0.08 | 1 | 1008.6 |
| 20260510093027 | 9 | 200 | 0.0 | 0.0 | 0.00 | 1.02 | 0.08 | 1 | 1008.5 |
| 20260510091528 | 9 | 200 | 0.0 | 0.0 | 0.00 | 1.02 | 0.08 | 1 | 1008.4 |
| 20260510090027 | 9 | 200 | 0.0 | 0.0 | 0.00 | 1.02 | 0.08 | 1 | 1008.3 |
| 20260510084520 | 9 | 200 | 0.0 | 0.0 | 0.00 | 1.02 | 0.08 | 1 | 1008.3 |
| 20260510083020 | 9 | 200 | 0.0 | 0.0 | 0.00 | 1.04 | 0.08 | 1 | 1008.2 |
| 20260510081515 | 9 | 200 | 0.0 | 0.0 | 0.00 | 1.04 | 0.08 | 1 | 1008.2 |
| 20260510080011 | 9 | 200 | 0.0 | 0.0 | 0.00 | 1.04 | 0.08 | 1 | 1007.7 |
| 20260510074507 | 9 | 200 | 0.0 | 0.0 | 0.00 | 1.04 | 0.08 | 1 | 1007.8 |
| 20260510073002 | 10 | 200 | 0.0 | 0.0 | 0.00 | 1.07 | 0.08 | 1 | 1007.6 |
| 20260510071559 | 10 | 198 | 0.0 | 0.0 | 0.00 | 1.07 | 0.08 | 1 | 1007.6 |
| 20260510070100 | 10 | 196 | 0.0 | 0.0 | 0.00 | 1.07 | 0.08 | 1 | 1007.7 |
| 20260510064626 | 10 | 196 | 0.0 | 0.0 | 0.00 | 1.07 | 0.08 | 1 | 1007.8 |
| 20260510063048 | 10 | 196 | 0.0 | 0.0 | 0.00 | 1.12 | 0.08 | 1 | 1008.1 |
| 20260510061542 | 11 | 189 | 0.0 | 0.0 | 0.03 | 1.12 | 0.08 | 1 | 1008.2 |
| 20260510060041 | 10 | 177 | 0.0 | 0.0 | 0.05 | 1.12 | 0.08 | 1 | 1008.0 |
| 20260510054542 | 10 | 189 | 0.0 | 0.0 | 0.08 | 1.12 | 0.08 | 1 | 1008.4 |
| 20260510053041 | 11 | 190 | 0.0 | 0.0 | 0.10 | 1.12 | 0.08 | 1 | 1008.6 |
| 20260510051542 | 11 | 190 | 0.0 | 0.0 | 0.08 | 1.09 | 0.05 | 1 | 1009.1 |
| 20260510050026 | 11 | 188 | 0.0 | 0.0 | 0.08 | 1.09 | 0.05 | 1 | 1009.5 |
| 20260510044523 | 11 | 155 | 0.0 | 0.0 | 0.03 | 1.04 | 0.00 | 1 | 1009.2 |
| 20260510043016 | 11 | 185 | 0.0 | 0.0 | 0.00 | 1.02 | 1.02 | 1 | 1009.5 |
| 20260510041512 | 11 | 213 | 0.0 | 1.6 | 0.00 | 1.02 | 1.02 | 1 | 1009.4 |
| 20260510040009 | 10 | 60 | 0.0 | 1.6 | 0.00 | 1.02 | 1.02 | 1 | 1008.8 |
| 20260510034506 | 10 | 225 | 0.0 | 0.0 | 0.00 | 1.02 | 1.02 | 1 | 1007.7 |
| 20260510033000 | 10 | 225 | 0.0 | 0.0 | 0.00 | 1.02 | 1.02 | 1 | 1007.9 |
| 20260510031557 | 10 | 225 | 0.0 | 0.0 | 0.00 | 1.02 | 1.02 | 1 | 1008.1 |
| 20260510030058 | 10 | 225 | 0.0 | 0.0 | 0.00 | 1.02 | 1.02 | 1 | 1008.0 |
| 20260510024550 | 10 | 225 | 0.0 | 0.0 | 0.00 | 1.02 | 1.02 | 1 | 1007.6 |
| 20260510023045 | 10 | 225 | 0.0 | 0.0 | 0.00 | 1.02 | 1.02 | 1 | 1007.2 |
| 20260510021545 | 10 | 225 | 0.0 | 0.0 | 0.00 | 1.02 | 1.02 | 1 | 1007.5 |
| 20260510020059 | 10 | 227 | 0.0 | 0.0 | 0.00 | 1.02 | 1.02 | 1 | 1007.5 |
| 20260510014601 | 11 | 227 | 0.0 | 0.0 | 0.00 | 1.02 | 1.02 | 1 | 1007.2 |
| 20260510013102 | 11 | 236 | 0.0 | 0.0 | 0.00 | 1.02 | 1.02 | 1 | 1007.1 |
| 20260510011547 | 11 | 240 | 0.0 | 0.0 | 0.00 | 1.02 | 1.02 | 1 | 1007.2 |
| 20260510010046 | 11 | 242 | 0.0 | 0.0 | 0.00 | 1.02 | 1.02 | 1 | 1007.1 |
| 20260510004539 | 11 | 242 | 0.0 | 0.0 | 0.00 | 1.02 | 1.02 | 1 | 1006.7 |
| 20260510003034 | 12 | 249 | 0.0 | 0.0 | 0.00 | 1.02 | 1.02 | 1 | 1006.4 |
| 20260510001528 | 12 | 253 | 0.0 | 0.0 | 0.00 | 1.02 | 1.02 | 1 | 1006.5 |
| 20260510000025 | 12 | 269 | 0.0 | 0.0 | 0.00 | 1.02 | 1.02 | 1 | 1006.6 |
| 20260509234520 | 12 | 226 | 0.0 | 0.0 | 0.00 | 1.02 | 1.02 | 1 | 1006.1 |
| 20260509233020 | 13 | 226 | 0.0 | 0.0 | 0.00 | 1.02 | 1.02 | 1 | 1006.1 |
| 20260509231512 | 13 | 226 | 0.0 | 0.0 | 0.00 | 1.02 | 1.02 | 1 | 1005.8 |
| 20260509230002 | 13 | 103 | 0.0 | 0.0 | 0.00 | 1.02 | 1.02 | 1 | 1006.0 |
| 20260509224558 | 13 | 208 | 0.0 | 0.0 | 0.00 | 1.02 | 1.02 | 1 | 1006.1 |